DW4666 Weather Reports


Display with metric or nautical units.
time (UTC)temp
F
wind
direction
speed
MPH
gust
MPH
rain 1hr
in
rain 24hr
in
rain mn
in
humidity
%
barometer
mb
20260905203603 62 235 3.0 18.0 0.00 0.04 0.04 60 1018.3
20260905202703 61 223 2.0 5.0 0.00 0.04 0.04 62 1017.9
20260905201803 61 228 2.0 5.0 0.00 0.04 0.04 62 1017.7
20260905200903 61 257 1.0 4.0 0.00 0.04 0.04 62 1017.6
20260905200003 62 234 1.0 4.0 0.00 0.04 0.04 62 1017.9
20260905195409 62 223 1.0 4.0 0.00 0.04 0.04 61 1017.6
20260905194713 62 223 2.0 5.0 0.00 0.04 0.04 61 1017.6
20260905193813 62 232 2.0 5.0 0.00 0.04 0.04 61 1017.6
20260905192703 62 225 1.0 4.0 0.00 0.04 0.04 60 1017.6
20260905191803 62 221 1.0 5.0 0.00 0.04 0.04 61 1017.7
20260905190903 62 231 1.0 4.0 0.00 0.04 0.04 61 1017.6
20260905190003 62 214 1.0 5.0 0.00 0.04 0.04 62 1017.7
20260905185403 62 201 1.0 3.0 0.00 0.04 0.04 61 1017.7
20260905184713 62 185 1.0 4.0 0.00 0.04 0.04 62 1017.6
20260905183603 63 219 1.0 5.0 0.00 0.04 0.04 60 1017.4
20260905182703 63 233 2.0 4.0 0.00 0.04 0.04 60 1017.4
20260905181803 63 243 2.0 5.0 0.00 0.04 0.04 59 1017.6
20260905180903 64 246 2.0 6.0 0.00 0.04 0.04 59 1017.6
20260905180003 64 226 2.0 6.0 0.00 0.04 0.04 59 1017.4
20260905175404 63 216 1.0 4.0 0.00 0.04 0.04 59 1017.5
20260905174503 64 228 1.0 5.0 0.00 0.04 0.04 58 1017.1
20260905173621 64 220 1.0 7.0 0.00 0.04 0.04 57 1017.3
20260905172703 65 211 2.0 7.0 0.00 0.04 0.04 54 1017.1
20260905171803 65 219 2.0 7.0 0.00 0.04 0.04 54 1017.0
20260905170903 66 221 3.0 7.0 0.00 0.04 0.04 53 1016.9
20260905170003 66 235 3.0 6.0 0.00 0.04 0.04 52 1016.9
20260905165403 67 237 3.0 8.0 0.00 0.04 0.04 51 1016.8
20260905164503 67 236 3.0 9.0 0.00 0.04 0.04 50 1016.9
20260905163603 67 239 4.0 8.0 0.00 0.04 0.04 49 1017.0
20260905162703 68 237 4.0 13.0 0.00 0.04 0.04 48 1016.7
20260905161803 69 230 4.0 13.0 0.00 0.04 0.04 47 1016.7
20260905160903 68 261 3.0 9.0 0.00 0.04 0.04 49 1016.5
20260905160003 67 235 3.0 9.0 0.00 0.04 0.04 51 1016.7
20260905155403 68 240 4.0 11.0 0.00 0.04 0.04 50 1016.2
20260905154503 69 256 3.0 10.0 0.00 0.04 0.04 49 1016.5
20260905153603 68 259 4.0 11.0 0.00 0.04 0.04 49 1016.4
20260905152703 68 259 4.0 11.0 0.00 0.04 0.04 49 1016.2
20260905151803 69 272 4.0 12.0 0.00 0.04 0.04 47 1016.3
20260905150903 69 257 4.0 11.0 0.00 0.04 0.04 46 1016.3
20260905150003 69 255 3.0 11.0 0.00 0.04 0.04 46 1016.1
20260905145403 69 247 4.0 12.0 0.00 0.04 0.04 48 1016.1
20260905144503 69 237 4.0 11.0 0.00 0.04 0.04 45 1016.2
20260905143603 69 233 3.0 12.0 0.00 0.04 0.04 45 1015.9
20260905142703 71 246 4.0 15.0 0.00 0.04 0.04 44 1016.2
20260905141803 70 242 5.0 15.0 0.00 0.04 0.04 44 1016.1
20260905140903 69 234 6.0 18.0 0.00 0.04 0.04 47 1016.3
20260905140212 71 248 5.0 18.0 0.00 0.04 0.04 45 1016.3
20260905135614 71 273 4.0 11.0 0.00 0.04 0.04 45 1016.2
20260905134503 71 258 4.0 12.0 0.00 0.04 0.04 45 1016.2
20260905133603 71 247 5.0 18.0 0.00 0.04 0.04 44 1015.9
20260905132703 71 246 5.0 15.0 0.00 0.04 0.04 43 1016.1
20260905132013 71 268 5.0 12.0 0.00 0.04 0.04 45 1015.9
20260905130903 70 248 6.0 19.0 0.00 0.04 0.04 45 1015.9
20260905130214 69 265 5.0 15.0 0.00 0.04 0.04 45 1015.9
20260905125403 70 268 5.0 16.0 0.00 0.04 0.04 45 1016.1
20260905124503 68 264 5.0 13.0 0.00 0.04 0.04 47 1016.3
20260905123603 68 251 4.0 13.0 0.00 0.04 0.04 52 1016.3
20260905122703 68 265 4.0 11.0 0.00 0.04 0.04 50 1016.2
20260905121803 68 285 4.0 12.0 0.00 0.04 0.04 51 1016.2
20260905120903 70 260 4.0 11.0 0.00 0.04 0.04 49 1015.8
20260905120003 70 250 5.0 14.0 0.00 0.04 0.04 49 1015.9
20260905115404 69 271 5.0 12.0 0.00 0.04 0.04 50 1015.9
20260905114503 69 254 5.0 13.0 0.00 0.04 0.04 51 1016.3
20260905113603 68 255 4.0 17.0 0.00 0.04 0.04 51 1015.9
20260905112703 68 249 5.0 18.0 0.00 0.04 0.04 52 1015.9
20260905111803 69 258 4.0 17.0 0.00 0.04 0.04 49 1015.9
20260905111114 68 278 6.0 17.0 0.00 0.04 0.04 51 1015.9
20260905110003 70 242 5.0 13.0 0.00 0.04 0.04 51 1015.8
20260905105403 69 258 6.0 17.0 0.00 0.04 0.04 50 1015.8
20260905104503 67 261 5.0 21.0 0.00 0.04 0.04 52 1015.9
20260905103603 67 274 5.0 12.0 0.00 0.04 0.04 55 1016.1
20260905102703 67 264 4.0 12.0 0.00 0.04 0.04 57 1015.9
20260905101803 66 264 5.0 22.0 0.00 0.04 0.04 57 1015.9
20260905100903 67 270 5.0 16.0 0.00 0.04 0.04 59 1016.1
20260905100003 67 254 5.0 19.0 0.00 0.04 0.04 59 1015.7
20260905095403 65 239 5.0 19.0 0.00 0.04 0.04 60 1015.6
20260905094503 65 248 4.0 12.0 0.00 0.04 0.04 61 1015.7
20260905093603 66 231 5.0 13.0 0.00 0.04 0.04 60 1015.9
20260905092703 65 270 4.0 12.0 0.00 0.04 0.04 64 1015.8
20260905092014 65 266 4.0 12.0 0.00 0.04 0.04 65 1015.8
20260905090903 65 229 4.0 10.0 0.00 0.04 0.04 62 1015.8
20260905090003 64 246 3.0 14.0 0.00 0.04 0.04 67 1016.1
20260905085614 65 254 4.0 11.0 0.00 0.04 0.04 67 1016.1
20260905084713 63 245 4.0 12.0 0.00 0.04 0.04 68 1015.7
20260905083813 63 249 4.0 12.0 0.00 0.04 0.04 69 1015.9
20260905082703 63 241 5.0 13.0 0.00 0.04 0.04 72 1015.8
20260905082013 63 247 4.0 11.0 0.00 0.04 0.04 71 1015.9
20260905080903 62 257 4.0 12.0 0.00 0.04 0.04 75 1015.9
20260905080003 62 263 3.0 16.0 0.00 0.04 0.04 78 1015.9
20260905075614 62 255 3.0 16.0 0.00 0.04 0.04 77 1015.6
20260905074713 62 252 3.0 11.0 0.00 0.04 0.04 78 1015.7
20260905073603 61 236 4.0 14.0 0.00 0.04 0.04 80 1015.3
20260905072703 61 239 3.0 8.0 0.00 0.04 0.04 82 1015.3
20260905071803 61 236 3.0 9.0 0.00 0.04 0.04 83 1015.3
20260905070903 61 223 3.0 8.0 0.00 0.04 0.04 83 1015.1
20260905070003 61 231 3.0 11.0 0.00 0.04 0.04 84 1015.0
20260905065403 61 234 3.0 10.0 0.00 0.04 0.04 84 1015.3
20260905064503 61 232 3.0 6.0 0.00 0.04 0.04 84 1014.6
20260905063603 60 218 3.0 9.0 0.00 0.04 0.04 84 1014.8
20260905062703 61 223 3.0 9.0 0.00 0.04 0.04 85 1014.7
20260905061803 60 220 3.0 12.0 0.00 0.04 0.04 84 1014.7
20260905060903 61 214 3.0 12.0 0.00 0.04 0.04 85 1014.4
20260905060003 61 213 3.0 9.0 0.00 0.04 0.04 85 1014.7
20260905055613 60 213 3.0 9.0 0.01 0.04 0.04 86 1014.6
20260905054503 60 210 3.0 10.0 0.01 0.04 0.04 87 1014.3
20260905053603 60 216 2.0 8.0 0.01 0.04 0.04 88 1014.0
20260905052913 60 221 3.0 9.0 0.01 0.04 0.04 88 1013.8
20260905051803 60 225 3.0 9.0 0.01 0.04 0.04 87 1014.0
20260905050903 60 238 3.0 10.0 0.01 0.04 0.04 87 1013.9
20260905050003 61 218 3.0 9.0 0.00 0.03 0.03 86 1013.8
20260905045403 61 232 4.0 9.0 0.00 0.03 0.03 86 1014.0
20260905044503 61 233 3.0 13.0 0.00 0.03 0.03 87 1013.8
20260905043603 61 221 3.0 9.0 0.00 0.03 0.03 86 1013.7
20260905042703 61 219 3.0 6.0 0.00 0.03 0.03 86 1013.7
20260905041803 61 208 3.0 7.0 0.00 0.03 0.03 87 1013.6
20260905040903 61 213 2.0 7.0 0.00 0.03 0.03 87 1013.6
20260905040003 61 206 2.0 6.0 0.00 0.03 0.03 87 1013.1
20260905035612 61 202 2.0 6.0 0.00 0.03 0.03 87 1013.0
20260905034503 61 225 2.0 6.0 0.00 0.03 0.03 87 1013.1
20260905033603 61 220 2.0 9.0 0.00 0.03 0.03 86 1013.2
20260905032703 61 209 2.0 6.0 0.00 0.03 0.03 86 1012.7
20260905031803 61 208 2.0 7.0 0.00 0.03 0.03 86 1012.4
20260905031113 61 225 3.0 6.0 0.00 0.03 0.03 85 1012.5
20260905030003 61 227 3.0 10.0 0.00 0.03 0.03 85 1012.5
20260905025614 61 217 3.0 11.0 0.00 0.03 0.03 85 1012.7
20260905024503 61 211 2.0 7.0 0.00 0.03 0.03 86 1012.8
20260905023603 61 226 3.0 9.0 0.00 0.03 0.03 86 1012.7
20260905022703 61 225 3.0 9.0 0.00 0.03 0.03 86 1012.4
20260905022013 61 215 3.0 9.0 0.00 0.03 0.03 86 1012.2
20260905020903 61 209 3.0 6.0 0.00 0.03 0.03 85 1012.2
20260905020003 61 194 2.0 6.0 0.00 0.03 0.03 84 1011.8
20260905015403 61 207 2.0 5.0 0.00 0.03 0.03 83 1012.0
20260905014504 61 214 2.0 6.0 0.00 0.03 0.03 82 1012.2
20260905013603 61 231 3.0 9.0 0.01 0.03 0.03 82 1012.0
20260905012703 61 214 3.0 9.0 0.02 0.03 0.03 83 1012.4
20260905011803 61 220 3.0 6.0 0.02 0.03 0.03 84 1012.4
20260905010903 61 219 3.0 7.0 0.03 0.03 0.03 85 1012.1
20260905010003 61 232 3.0 9.0 0.03 0.03 0.03 87 1012.1
20260905005403 61 230 3.0 8.0 0.02 0.02 0.02 87 1012.2
20260905004503 61 232 3.0 9.0 0.02 0.02 0.02 86 1011.8
20260905003603 61 251 3.0 9.0 0.02 0.02 0.02 85 1011.6
20260905002703 62 257 3.0 11.0 0.01 0.01 0.01 82 1012.2
20260905002012 63 269 4.0 12.0 0.01 0.01 0.01 79 1012.1
20260905000903 66 258 4.0 13.0 0.00 0.00 0.00 73 1011.6
20260905000003 67 264 4.0 12.0 0.00 0.00 0.00 69 1011.1
20260904235404 67 247 4.0 13.0 0.00 0.00 0.00 68 1011.4
20260904234503 67 247 4.0 13.0 0.00 0.00 0.00 66 1010.9
20260904233603 67 248 4.0 10.0 0.00 0.00 0.00 67 1010.9
20260904232703 68 243 4.0 11.0 0.00 0.00 0.00 68 1010.8
20260904231803 68 260 4.0 10.0 0.00 0.00 0.00 68 1010.6
20260904231113 68 244 3.0 11.0 0.00 0.00 0.00 70 1010.6
20260904230003 68 260 3.0 11.0 0.00 0.00 0.00 69 1010.4
20260904225403 68 262 4.0 11.0 0.00 0.00 0.00 69 1010.6
20260904224503 69 268 3.0 10.0 0.00 0.00 0.00 69 1010.4
20260904223603 69 272 3.0 6.0 0.00 0.00 0.00 69 1010.3
20260904222912 70 250 3.0 11.0 0.00 0.00 0.00 69 1009.7
20260904221803 71 303 4.0 17.0 0.00 0.00 0.00 70 1009.6
20260904220903 72 292 5.0 17.0 0.00 0.00 0.00 69 1009.8
20260904220003 74 263 5.0 15.0 0.00 0.00 0.00 65 1009.6
20260904215614 74 270 4.0 13.0 0.00 0.00 0.00 64 1009.6
20260904214504 74 287 4.0 11.0 0.00 0.00 0.00 61 1009.2
20260904213603 74 204 3.0 7.0 0.00 0.00 0.00 58 1008.1
20260904212703 74 194 3.0 9.0 0.00 0.00 0.00 59 1007.9
20260904211803 73 196 2.0 7.0 0.00 0.00 0.00 61 1008.1
20260904210903 73 194 2.0 7.0 0.00 0.00 0.00 62 1008.2
20260904210214 73 198 3.0 8.0 0.00 0.00 0.00 63 1008.4
20260904205614 73 192 3.0 7.0 0.00 0.00 0.00 63 1008.1
20260904204503 73 196 3.0 8.0 0.00 0.00 0.00 63 1008.1